Location: Forst
(46.9333°N, 15.4333°E)
Time: 20:18:07
(UTC+00:00)

CZ-4B R/B - Visible Passes

Search period start: 13 April 2021 00:00
Search period end: 23 April 2021 00:00
Orbit: 388 x 455 km, 97.6° (Epoch: 13 April)

Date Brightness Start Highest point End Pass type
(mag) Time Alt. Az. Time Alt. Az. Time Alt. Az.
16 Apr 5.5 03:10:15 10° ENE 03:11:10 11° ENE 03:12:07 10° NE visible
18 Apr 5.3 03:14:26 10° E 03:15:51 12° ENE 03:17:15 10° NE visible
19 Apr 4.5 18:19:53 10° NNW 18:22:38 22° WNW 18:25:20 10° WSW visible
20 Apr 5.1 03:18:45 10° E 03:20:29 14° ENE 03:22:15 10° NNE visible
21 Apr 4.7 18:24:40 10° NNW 18:27:16 20° WNW 18:29:50 10° WSW visible
22 Apr 5.0 03:23:07 10° E 03:25:07 15° ENE 03:27:09 10° NNE visible
